Wind_Speed
86 91 80 75 80 83 86 85 85 83 80 83 76 70 63 69 67 65 64 60 58 56 58 56 57 57 62 59 52 58 56 55 56 58 52 46 41 38 33 28 22 20 21 25
98 85 67 78 81 81 82 80 76 78 76 73 80 73 64 64 62 58 59 59 55 55 55 54 55 60 57 50 50 57 53 55 59 53 49 44 39 35 27 21 18 23 25 29
83 59 79 84 82 78 74 68 70 75 78 79 76 67 59 60 61 54 57 57 53 56 52 53 55 54 49 46 51 51 54 57 53 49 45 40 35 26 21 19 23 24 28 33
85 68 76 75 68 65 63 71 73 72 71 66 71 54 56 63 59 55 57 56 54 51 51 51 51 43 42 46 48 49 53 53 51 44 39 36 26 22 18 23 27 30 34 37
73 70 63 64 57 64 65 75 73 70 63 61 56 43 58 60 56 58 54 51 52 50 50 45 38 39 40 44 44 49 50 51 46 39 36 29 23 18 20 25 31 36 35 30
87 80 78 64 70 71 73 69 63 59 55 50 49 38 54 60 56 53 51 53 50 48 40 31 35 37 40 40 42 46 49 49 39 35 32 24 19 17 23 30 31 27 25 24
96 82 75 67 64 63 58 52 52 51 45 37 41 36 58 59 48 45 49 47 44 39 27 31 32 36 38 38 42 45 48 39 34 33 27 19 14 18 27 27 25 27 23 17
101 87 71 65 60 59 55 55 51 47 41 35 38 32 55 45 35 40 42 39 29 21 26 28 31 35 35 39 41 44 40 35 32 30 22 12 12 21 26 20 24 23 17 9
105 95 81 73 68 65 59 49 50 38 32 32 33 39 49 34 33 37 32 19 18 22 24 26 31 31 35 37 41 37 36 31 29 24 15 7 13 24 23 18 21 23 13 11
110 98 83 78 74 69 59 54 38 29 24 31 35 43 43 28 28 23 18 17 21 24 25 30 27 32 33 38 37 37 31 29 24 20 8 4 15 27 19 17 24 22 15 14
110 99 91 85 70 61 53 41 33 27 27 38 39 38 42 30 22 15 15 19 24 22 25 24 25 30 33 34 34 29 28 24 20 15 3 5 17 27 18 16 23 21 17 16
112 102 95 76 71 65 59 47 36 30 37 41 43 36 29 18 15 18 19 20 18 23 21 19 25 28 30 31 29 25 24 22 16 10 5 7 18 24 22 17 22 22 18 17
114 110 94 91 81 68 52 42 37 30 35 37 35 39 22 19 23 21 23 19 17 19 17 19 21 27 24 28 24 23 22 19 12 5 9 7 14 16 28 21 17 18 21 16
111 107 93 84 71 61 52 45 40 29 33 36 31 36 22 26 28 23 20 17 18 18 15 17 20 23 21 25 22 20 19 16 8 3 10 6 7 11 20 26 18 17 21 21
110 102 92 87 75 63 54 49 44 36 32 32 37 30 33 31 24 22 18 17 19 15 15 13 17 18 18 20 18 17 15 14 8 4 11 6 4 5 13 19 25 17 14 18
107 101 91 88 74 64 58 51 44 39 42 40 42 33 32 29 29 26 20 22 21 15 12 12 13 14 14 17 16 14 12 12 9 2 10 9 5 1 6 14 20 23 19 16
105 97 90 88 71 67 59 53 46 43 43 45 39 41 37 33 28 27 14 27 21 16 11 10 8 10 12 16 15 13 11 10 10 2 5 11 8 4 2 7 14 20 22 17
100 95 90 86 71 67 66 58 52 51 47 47 44 39 35 33 31 27 19 29 23 18 13 7 8 9 10 14 17 13 12 9 10 8 3 6 9 6 4 4 9 16 22 20
95 93 91 83 72 69 70 61 54 52 54 54 52 45 40 35 27 24 25 30 25 20 14 8 8 8 9 12 16 17 13 8 10 10 8 3 7 7 4 3 4 11 18 21
94 92 91 82 76 72 65 62 58 55 59 55 51 44 42 38 24 21 31 30 25 22 16 10 6 6 9 10 13 16 17 10 9 9 10 9 5 6 5 4 5 7 11 17
96 93 91 84 79 73 66 65 63 57 52 49 46 42 40 32 28 25 33 32 26 23 17 12 6 4 7 10 11 14 16 15 10 9 8 8 9 11 11 8 6 5 9 15
95 94 91 87 82 78 72 66 61 52 52 46 38 36 37 34 31 28 35 32 29 25 19 16 8 4 5 8 10 12 14 16 14 9 9 8 7 8 12 13 10 8 11 13
96 95 94 88 81 77 70 64 61 58 55 49 38 42 41 38 35 34 36 35 31 26 21 16 10 5 5 6 8 10 12 15 17 16 9 7 9 8 6 9 12 12 12 13
97 96 94 90 84 78 71 66 64 61 57 52 43 47 44 41 38 39 38 37 35 28 23 19 12 8 7 6 6 8 9 12 13 17 17 11 8 8 7 6 6 8 9 12
96 94 94 91 85 79 75 70 67 65 60 55 48 50 48 44 41 39 42 40 38 34 29 24 18 14 10 8 5 5 7 8 11 13 15 17 15 7 6 8 8 6 4 5
92 97 96 92 87 80 76 74 71 68 63 58 53 52 52 50 46 43 41 40 39 37 34 29 25 21 17 12 7 4 3 5 5 8 12 14 15 15 9 8 4 6 5 4
Wind_Direction
252 253 258 257 256 256 258 260 261 259 257 261 268 269 267 266 274 276 278 280 283 287 287 291 292 297 300 306 311 317 317 320 323 323 320 318 313 305 300 295 302 302 301 304
249 252 255 251 253 255 256 259 261 257 258 265 267 270 269 268 270 274 275 277 282 284 287 288 293 295 300 307 314 317 319 319 321 322 317 313 307 302 300 301 303 303 308 311
249 246 245 250 251 256 257 257 255 258 259 265 266 268 267 267 267 272 271 274 278 280 285 288 290 296 301 310 317 317 314 316 324 320 315 309 309 308 303 311 308 310 312 310
244 241 247 250 254 255 256 254 254 256 261 265 269 267 264 262 261 263 264 270 276 282 283 285 291 298 305 314 316 315 313 319 321 315 311 311 312 310 318 319 320 320 314 311
243 241 242 247 250 250 249 254 257 262 268 272 275 270 262 257 255 257 265 269 273 278 280 286 294 301 314 313 313 312 314 319 317 311 312 314 312 320 325 324 328 324 318 316
238 237 237 237 242 247 251 259 266 269 270 272 266 257 252 253 255 256 260 264 270 272 280 289 298 313 309 309 311 310 322 320 312 311 313 312 320 328 326 336 334 335 328 328
236 235 235 236 242 248 255 261 264 266 265 260 251 241 246 251 249 252 256 260 263 271 283 293 308 312 305 313 313 320 319 315 312 310 312 314 327 340 349 341 342 333 335 340
231 230 233 234 238 242 243 246 252 264 265 254 241 229 243 248 241 249 251 257 262 277 281 298 311 305 311 311 316 316 314 316 310 312 311 317 349 4 355 351 343 348 354 25
230 231 227 228 229 232 238 243 246 256 257 232 228 211 239 232 233 241 249 251 263 266 283 301 308 308 305 314 314 312 312 312 309 309 309 334 10 9 5 5 4 12 32 60
231 228 226 227 228 232 237 241 252 259 249 223 208 209 237 221 224 235 237 249 260 276 288 304 306 302 307 309 309 311 317 312 305 309 306 357 27 19 20 23 26 32 57 81
225 223 225 226 230 233 237 241 242 237 223 206 198 205 223 213 221 230 243 252 272 282 294 305 297 299 309 309 313 316 316 308 306 305 246 55 43 27 26 28 41 41 64 89
220 219 223 223 225 224 225 227 233 220 202 204 212 216 206 211 220 227 236 260 269 284 297 291 293 305 307 319 317 320 313 308 310 289 167 84 57 33 29 40 51 47 60 85
217 217 218 222 223 222 222 227 230 216 215 210 208 218 197 222 233 238 262 258 269 283 283 279 295 301 313 324 324 322 314 314 313 267 174 96 64 43 37 43 52 56 64 73
212 212 216 219 216 218 217 223 228 223 204 205 211 221 207 220 235 246 244 241 253 271 254 273 291 303 319 326 327 336 322 324 324 193 171 160 69 44 43 46 55 65 70 74
206 206 212 216 215 216 213 216 218 211 202 205 218 209 211 232 244 236 252 246 246 231 248 271 290 311 324 334 332 338 328 333 334 234 190 192 157 45 47 49 48 66 72 70
202 203 207 213 212 210 210 211 215 209 209 212 217 215 229 229 239 248 260 225 224 219 238 262 290 312 326 343 341 339 334 343 352 254 194 208 180 174 20 57 55 60 69 73
199 199 204 212 209 206 206 208 207 201 209 220 221 220 225 228 236 251 246 221 206 214 222 251 292 306 341 353 355 355 346 349 4 353 196 213 220 227 307 64 59 57 67 66
197 197 202 210 206 204 204 205 203 198 205 215 218 215 230 242 252 259 265 210 200 206 218 233 267 302 339 358 6 6 356 1 11 15 199 201 213 209 214 91 62 62 68 70
194 196 202 207 203 202 202 202 205 203 202 212 218 219 227 235 243 254 208 198 200 200 203 213 253 296 327 354 9 12 10 11 22 26 66 153 214 205 181 191 91 77 74 76
193 196 202 203 201 201 201 201 202 204 208 213 219 221 230 234 229 220 190 193 201 204 195 209 235 290 321 340 4 14 23 18 26 32 47 75 115 173 147 143 143 98 91 87
191 194 197 200 201 200 200 202 201 203 207 215 221 221 226 216 209 195 184 194 199 203 203 208 216 274 316 334 358 9 21 25 31 30 36 52 75 101 111 124 151 136 120 116
193 195 197 199 201 200 201 202 202 202 208 213 215 204 195 196 197 191 184 190 204 206 204 218 211 257 305 330 357 12 20 25 29 36 31 33 43 64 96 109 123 134 141 137
191 195 197 201 203 202 199 200 198 201 206 211 205 191 193 194 193 186 185 190 199 209 211 219 210 221 289 318 355 2 24 26 27 35 31 32 37 35 50 89 105 124 139 153
192 195 197 200 202 200 199 201 199 202 205 208 200 191 194 198 195 187 190 194 198 200 211 222 218 221 254 299 336 354 16 34 25 28 36 27 30 36 46 53 77 103 118 142
194 195 198 201 202 201 200 202 198 201 204 207 200 193 193 197 203 194 194 198 202 202 209 216 227 226 231 264 296 337 3 21 33 33 29 36 36 23 17 15 37 57 96 131
195 195 197 200 203 203 201 202 199 201 204 206 203 198 194 198 202 203 202 203 207 209 209 216 220 229 236 242 250 289 331 350 6 37 39 32 36 42 33 12 6 23 37 49
Height
10656 10659 10689 10687 10698 10706 10709 10718 10726 10726 10726 10722 10738 10750 10758 10754 10759 10760 10758 10757 10755 10757 10751 10748 10743 10736 10732 10724 10717 10711 10701 10692 10684 10675 10666 10658 10652 10645 10639 10632 10628 10624 10619 10615
10635 10663 10673 10660 10673 10685 10694 10708 10715 10709 10715 10725 10720 10737 10745 10743 10744 10751 10748 10745 10745 10744 10742 10738 10734 10729 10723 10716 10708 10701 10691 10685 10676 10666 10659 10653 10645 10638 10632 10627 10623 10618 10612 10606
10617 10661 10628 10644 10655 10670 10683 10691 10687 10695 10694 10708 10715 10727 10732 10732 10732 10738 10735 10734 10735 10734 10733 10729 10724 10720 10713 10707 10700 10692 10685 10678 10668 10660 10654 10646 10638 10632 10627 10622 10617 10611 10605 10598
10600 10622 10629 10635 10650 10658 10668 10661 10666 10678 10687 10700 10701 10724 10720 10713 10721 10724 10723 10725 10726 10727 10723 10719 10715 10711 10705 10699 10692 10685 10679 10670 10662 10656 10648 10639 10633 10627 10622 10617 10611 10604 10597 10589
10603 10607 10615 10623 10638 10634 10648 10645 10656 10668 10682 10690 10695 10710 10694 10696 10707 10708 10713 10717 10716 10716 10713 10710 10707 10703 10697 10691 10685 10679 10672 10663 10656 10651 10642 10635 10629 10624 10618 10613 10605 10596 10587 10579
10568 10582 10588 10613 10612 10621 10631 10641 10652 10659 10670 10681 10676 10690 10678 10680 10693 10701 10704 10704 10707 10706 10704 10702 10699 10694 10689 10684 10679 10672 10663 10655 10651 10644 10637 10631 10627 10620 10615 10608 10599 10590 10581 10574
10548 10564 10582 10593 10605 10613 10625 10635 10642 10648 10658 10668 10662 10674 10658 10668 10683 10691 10691 10696 10697 10697 10697 10695 10690 10686 10681 10676 10670 10662 10656 10652 10646 10640 10633 10628 10623 10619 10612 10603 10595 10587 10578 10571
10528 10545 10570 10587 10598 10607 10617 10621 10631 10640 10650 10655 10654 10664 10652 10666 10677 10682 10683 10687 10689 10690 10688 10686 10683 10679 10674 10669 10662 10656 10652 10647 10642 10636 10630 10626 10622 10616 10609 10601 10594 10583 10576 10572
10515 10535 10553 10568 10578 10591 10604 10621 10622 10634 10642 10645 10648 10652 10647 10664 10668 10672 10679 10681 10683 10683 10680 10679 10676 10671 10668 10662 10656 10651 10647 10642 10638 10633 10628 10625 10621 10615 10607 10601 10593 10582 10577 10575
10502 10520 10541 10551 10563 10580 10601 10607 10624 10632 10637 10640 10644 10648 10648 10658 10662 10669 10672 10676 10678 10676 10673 10673 10669 10666 10662 10657 10652 10646 10641 10638 10635 10629 10626 10625 10620 10614 10607 10602 10593 10586 10581 10579
10484 10505 10521 10533 10565 10581 10596 10610 10620 10625 10631 10634 10636 10641 10642 10651 10658 10664 10668 10672 10672 10668 10667 10666 10664 10661 10657 10652 10646 10640 10637 10635 10630 10626 10625 10624 10620 10614 10609 10603 10595 10591 10586 10585
10463 10487 10507 10542 10552 10565 10579 10596 10610 10615 10622 10627 10629 10633 10642 10649 10653 10658 10663 10665 10665 10662 10661 10661 10660 10656 10653 10647 10640 10637 10635 10631 10626 10624 10624 10623 10619 10616 10610 10605 10599 10596 10591 10589
10446 10470 10495 10513 10534 10553 10579 10595 10604 10609 10614 10621 10624 10624 10638 10644 10646 10653 10657 10658 10657 10656 10657 10657 10656 10653 10649 10643 10637 10635 10633 10628 10624 10622 10623 10623 10620 10618 10613 10607 10603 10600 10596 10595
10435 10465 10487 10513 10536 10551 10571 10584 10593 10602 10608 10614 10617 10618 10632 10637 10641 10648 10652 10652 10652 10651 10654 10654 10652 10650 10646 10641 10636 10634 10631 10627 10623 10622 10622 10622 10620 10619 10616 10610 10606 10604 10601 10599
10424 10454 10479 10501 10525 10542 10560 10573 10582 10592 10602 10607 10609 10616 10623 10630 10637 10644 10646 10647 10647 10648 10651 10651 10649 10647 10644 10639 10635 10632 10629 10626 10623 10621 10621 10620 10620 10620 10618 10614 10609 10607 10604 10603
10414 10445 10469 10488 10514 10531 10549 10563 10574 10584 10592 10595 10598 10612 10620 10628 10634 10639 10642 10642 10642 10646 10648 10648 10647 10645 10643 10638 10633 10630 10628 10626 10622 10619 10619 10619 10619 10620 10619 10616 10612 10609 10607 10606
10405 10436 10457 10478 10506 10522 10540 10554 10564 10574 10582 10589 10596 10605 10614 10620 10628 10632 10636 10637 10639 10644 10645 10646 10645 10644 10642 10637 10633 10630 10627 10625 10621 10619 10618 10618 10618 10619 10620 10618 10615 10612 10609 10608
10399 10428 10448 10469 10496 10514 10525 10542 10553 10562 10571 10579 10584 10602 10611 10617 10624 10629 10631 10632 10635 10641 10643 10643 10644 10642 10641 10638 10634 10630 10628 10625 10621 10619 10618 10617 10618 10618 10619 10619 10617 10616 10613 10611
10396 10422 10440 10462 10486 10505 10514 10533 10547 10555 10566 10572 10581 10597 10604 10610 10617 10621 10625 10628 10632 10637 10639 10641 10641 10641 10641 10639 10635 10631 10628 10626 10623 10621 10618 10617 10618 10618 10618 10619 10619 10619 10617 10615
10391 10413 10431 10455 10474 10493 10512 10527 10538 10546 10556 10566 10575 10591 10597 10605 10610 10615 10620 10626 10632 10635 10636 10639 10639 10639 10639 10638 10635 10633 10629 10628 10625 10623 10621 10619 10618 10618 10618 10619 10620 10620 10620 10619
10381 10401 10419 10441 10462 10485 10503 10516 10527 10540 10554 10563 10571 10585 10591 10598 10601 10609 10616 10623 10629 10633 10636 10637 10637 10637 10638 10638 10636 10633 10631 10629 10627 10624 10623 10622 10620 10618 10618 10618 10620 10621 10622 10622
10376 10396 10413 10433 10452 10470 10490 10508 10526 10542 10548 10557 10567 10578 10583 10588 10594 10603 10612 10619 10626 10630 10633 10635 10635 10636 10637 10637 10636 10634 10632 10630 10628 10626 10625 10624 10623 10621 10619 10619 10621 10621 10622 10623
10370 10388 10406 10427 10448 10468 10490 10507 10522 10531 10541 10550 10562 10570 10575 10581 10588 10597 10606 10614 10621 10626 10631 10633 10634 10635 10636 10636 10635 10635 10633 10631 10630 10628 10627 10626 10624 10623 10622 10621 10622 10622 10623 10624
10360 10380 10399 10416 10437 10460 10484 10498 10514 10524 10534 10543 10556 10562 10568 10574 10581 10590 10599 10607 10615 10621 10625 10629 10632 10632 10634 10634 10634 10634 10633 10632 10631 10630 10628 10627 10626 10625 10624 10624 10624 10624 10624 10625
10354 10375 10391 10410 10429 10452 10472 10488 10504 10515 10526 10536 10547 10555 10561 10567 10574 10583 10591 10600 10608 10614 10621 10624 10627 10630 10631 10632 10633 10632 10632 10632 10632 10631 10630 10628 10628 10627 10626 10626 10626 10626 10626 10626
10351 10366 10383 10402 10422 10445 10464 10478 10492 10505 10516 10527 10539 10549 10554 10560 10567 10574 10583 10592 10600 10607 10613 10618 10621 10625 10629 10630 10630 10630 10631 10631 10631 10631 10631 10630 10629 10628 10627 10627 10626 10626 10626 10626